View from above orbital plane
|
View from above satellite
|
Ground track
|
The orbit data is extracted from the following two-line orbital elements,
1 32788U 08021F 21023.49531973 .00000507 00000-0 50858-4 0 9990
2 32788 97.4984 24.3120 0012803 42.4583 317.7627 14.95357933692192
Epoch (UTC): | 23 January 2021 11:53:15 |
Eccentricity: | 0.0012803 |
inclination: | 97.4984° |
perigee height: | 572 km |
apogee height: | 590 km |
right ascension of ascending node: | 24.3120° |
argument of perigee: | 42.4583° |
revolutions per day: | 14.95357933 |
mean anomaly at epoch: | 317.7627° |
orbit number at epoch: | 69219 |
The dashed part of the orbit path shows where the satellite is in the earth's shadow,
|
|